Flag for Canada Weather past 2 weeks in Whistler, British Columbia, Canada

Now
81 °F

Pleasantly warm.


Feels Like: 80 °F
Forecast: 46 / 82 °F
Wind: 8 mph from South

Location: Squamish Airport

Current Time: Sep 21, 2014 at 4:04:31 PM

Latest Report: Sep 21, 2014 at 3:00 PM


Visibility: N/A

Pressure: 29.77 "Hg

Humidity: 30%

Dew point: 47 °F

Location of WhistlerLocation

Historic Weather in Whistler — Graph

°F

Whistler temperature yesterday

Maximum temperature yesterday: 79 °F (at 2:00 PM)
Minimum temperature yesterday: 51 °F (at 6:00 AM)
Average temperature yesterday: 63 °F

Past Weeks' High & Low Weather Summary

 TemperatureHumidityPressure
High83 °F (Sep 6, 4:00 PM)99% (Sep 18, 6:00 AM)30.37 "Hg (Sep 18, 6:00 AM)
Low42 °F (Sep 11, 6:00 AM)10% (Sep 10, 3:00 PM)29.67 "Hg (Sep 18, 5:00 AM)
Average62 °F65%29.94 "Hg
* Reported Sep 6 3:00 PM — Sep 21 3:00 PM, Whistler, Weather by CustomWeather, © 2014

Note: Actual official high and low records may vary slightly from our data, if they occured in-between our weather recording intervals... More about our weather records

Advertising

Whistler weather history for previous 24 hours

 ConditionsComfort  
Time TempWeatherWind HumidityBarometerVisibility
3:00 PM
Sep 21
81 °FPleasantly warm.8 mph30%29.77 "HgN/A
2:00 PM83 °FPleasantly warm.7 mph31%29.79 "HgN/A
1:00 PM82 °FPleasantly warm.2 mph32%29.81 "HgN/A
12:00 PM76 °FMild.2 mph40%29.83 "HgN/A
11:00 AM70 °FMild.3 mph50%29.85 "HgN/A
10:00 AM65 °FMild.3 mph63%29.88 "HgN/A
9:00 AM59 °FCool.3 mph74%29.89 "HgN/A
8:00 AM53 °FCool.2 mph89%29.90 "HgN/A
7:00 AM51 °FCool.2 mph93%29.89 "HgN/A
6:00 AM52 °FCool.2 mph93%29.89 "HgN/A
5:00 AM53 °FCool.2 mph93%29.89 "HgN/A
4:00 AM53 °FCool.1 mph94%29.89 "HgN/A
3:00 AM53 °FCool.No wind86%29.89 "HgN/A
2:00 AM54 °FCool.2 mph92%29.90 "HgN/A
1:00 AM54 °FCool.1 mph93%29.91 "HgN/A
12:00 AM55 °FCool.1 mph91%29.92 "HgN/A
11:00 PM
Sep 20
57 °FCool.2 mph90%29.92 "HgN/A
10:00 PM57 °FCool.1 mph91%29.92 "HgN/A
9:00 PM59 °FCool.1 mph86%29.92 "HgN/A
8:00 PM61 °FCool.1 mph82%29.92 "HgN/A
7:00 PM65 °FMild.1 mph72%29.93 "HgN/A
6:00 PM69 °FMild.2 mph56%29.93 "HgN/A
5:00 PM74 °FMild.8 mph50%29.95 "HgN/A
4:00 PM74 °FMild.8 mph46%29.96 "HgN/A
Weather by CustomWeather, © 2014

See weather overviewHow to use our weather pages